Weather History for Big Piney, WY

Change the Weather History Date:

Monday, December 9, 2013

  Actual Average Record
Temperature  
Mean Temperature -3 °F 13 °F  
Max Temperature 17 °F 27 °F 40 °F (2000)
Min Temperature -23 °F 0 °F -27 °F (2009)
Degree Days  
Heating Degree Days 68 52  
Month to date heating degree days 542 453  
Since 1 July heating degree days 3007 3268  
Cooling Degree Days 0 0  
Month to date cooling degree days 0 0  
Year to date cooling degree days 89 35  
Moisture  
Dew Point -11 °F    
Average Humidity 68    
Maximum Humidity 87    
Minimum Humidity 49    
Precipitation  
Precipitation 0.00 in 0.01 in 0.08 in (1992)
Month to date precipitation T 0.08  
Year to date precipitation 4.51 6.26  
Sea Level Pressure  
Sea Level Pressure 30.44 in    
Wind  
Wind Speed 8 mph (NNE)    
Max Wind Speed 31 mph    
Max Gust Speed 37 mph    
Visibility 10 miles    
Events      
T = Trace of Precipitation, MM = Missing Value Source: NWS Daily Summary

Daily Weather History Graph

Daily Weather History Graph

Search for Another Location

Airport:

Trip Planner

Search our weather history database for the weather conditions in past years. The results will help you decide how hot, cold, wet, or windy it might be!

Date:

Astronomy

Dec. 09, 2013 Rise Set
Actual Time 7:38 AM MST 4:47 PM MST
Civil Twilight 7:06 AM MST 5:18 PM MST
Nautical Twilight 6:31 AM MST 5:54 PM MST
Astronomical Twilight 5:57 AM MST 6:28 PM MST
Moon 12:26 PM MST (12/9) No Moon Set
Length of Visible Light 10h 12m
Length of Day
9h 08m
First Quarter, 52% of the Moon is Illuminated
Dec 9
First Quarter
Dec 17
Full
Dec 25
Last Quarter
Jan 1
New
Jan 7
First Quarter

Hourly Weather History & Observations

Time (MST) Temp. Windchill Dew Point Humidity Pressure Visibility Wind Dir Wind Speed Gust Speed Precip Events Conditions
12:53 AM -18.0 °F -37.5 °F -24.0 °F 74% 30.32 in 10.0 mi NNW 9.2 mph - N/A   Clear
1:53 AM -18.9 °F - -26.0 °F 70% 30.30 in 10.0 mi Calm Calm - N/A   Clear
2:53 AM -20.0 °F - -27.0 °F 70% 30.37 in 10.0 mi Calm Calm - N/A   Clear
3:53 AM -18.0 °F - -26.0 °F 67% 30.34 in 10.0 mi Calm Calm - N/A   Clear
4:53 AM -23.1 °F - -29.0 °F 74% 30.40 in 10.0 mi Calm Calm - N/A   Clear
5:53 AM -22.0 °F -37.7 °F -27.9 °F 74% 30.43 in 10.0 mi SSE 5.8 mph - N/A   Clear
6:53 AM -13.0 °F -22.7 °F -20.9 °F 68% 30.38 in 10.0 mi Variable 3.5 mph - N/A   Clear
7:53 AM -13.0 °F -25.1 °F -20.9 °F 68% 30.42 in 10.0 mi NNE 4.6 mph - N/A   Clear
8:53 AM -11.0 °F -24.6 °F -17.0 °F 75% 30.46 in 10.0 mi SW 5.8 mph - N/A   Clear
9:53 AM -6.0 °F - -13.0 °F 72% 30.45 in 10.0 mi Calm Calm - N/A   Clear
10:53 AM 6.1 °F -0.9 °F -9.9 °F 48% 30.45 in 10.0 mi Variable 3.5 mph - N/A   Clear
11:53 AM 12.9 °F -6.1 °F -0.9 °F 54% 30.39 in 10.0 mi NNW 23.0 mph 32.2 mph N/A   Clear
12:53 PM 14.0 °F -4.3 °F -0.0 °F 54% 30.42 in 10.0 mi North 21.9 mph - N/A   Clear
1:53 PM 16.0 °F 1.7 °F 1.0 °F 52% 30.41 in 10.0 mi NNW 13.8 mph - N/A   Clear
2:53 PM 15.1 °F 1.1 °F -0.0 °F 51% 30.44 in 10.0 mi NNW 12.7 mph - N/A   Clear
3:53 PM 12.0 °F -2.7 °F -2.0 °F 53% 30.47 in 10.0 mi NNE 12.7 mph - N/A   Partly Cloudy
4:53 PM 7.0 °F -12.1 °F -2.9 °F 64% 30.55 in 10.0 mi NNE 18.4 mph - N/A   Mostly Cloudy
5:53 PM 7.0 °F -9.8 °F -2.0 °F 67% 30.55 in 10.0 mi NNE 13.8 mph - N/A   Overcast
6:53 PM 8.1 °F -6.2 °F -0.9 °F 67% 30.50 in 10.0 mi NNE 10.4 mph - N/A   Overcast
7:53 PM 8.1 °F - -0.9 °F 67% 30.51 in 10.0 mi Calm Calm - N/A   Overcast
8:53 PM 6.1 °F -0.9 °F -0.9 °F 73% 30.53 in 10.0 mi SSE 3.5 mph - N/A   Overcast
9:53 PM 1.9 °F -10.6 °F -2.9 °F 80% 30.53 in 10.0 mi SW 6.9 mph - N/A   Mostly Cloudy
10:53 PM -0.0 °F -11.6 °F -6.0 °F 76% 30.48 in 10.0 mi SSE 5.8 mph - N/A   Mostly Cloudy
11:53 PM -5.1 °F -15.8 °F -11.0 °F 76% 30.48 in 10.0 mi ENE 4.6 mph - N/A   Mostly Cloudy